[[{"header":{"parameterUnit":"m.s-1","parameterCategory":1,"la1":30.2991,"la2":30.254,"lo1":-89.0895,"lo2":-89.0444,"dy":0.0017,"dx":0.0017,"nx":28,"ny":28,"refTime":"2023-09-27T09:00:00:Z","depth":0,"parameterNumber":2,"parameterNumberName":"U-component_of_WINDS"},"data":[0,0,0,0,0,0,0,0,0,0,0,0,0,0,0,0,0,0,0,0,0,0,0,0,0,0,0,0,0,0,0,0,0,0,0,0,0,0,0,0,0,0,0,0,0,0,0,0,0,0,0,0,0,0,0,0,0,0,-1.1482,-1.1484,0,-1.1664,-1.1666,-1.1668,-1.1774,-1.1774,-1.1775,-1.1775,-1.1963,-1.1967,-1.1972,0,0,0,0,0,0,0,0,0,0,0,0,0,-1.1227,-1.1231,-1.1482,-1.1485,-1.1487,-1.1664,-1.1666,-1.1669,-1.1774,-1.1774,-1.1775,-1.1775,-1.1961,-1.1967,-1.1972,0,0,0,0,0,0,0,0,0,0,0,0,0,-1.1366,-1.1232,-1.1482,-1.1561,-1.1569,-1.1663,-1.1666,-1.1669,-1.1774,-1.1774,-1.1775,-1.1775,-1.1959,-1.1966,-1.1973,-1.2003,0,0,-1.1994,-1.1997,0,0,0,0,0,0,0,0,-1.1358,-1.1375,-1.1547,-1.1555,-1.1565,-1.1697,-1.1645,-1.1781,-1.1773,-1.1696,-1.1775,-1.1776,-1.1874,-1.1888,-1.1921,-1.2012,-1.202,-1.1995,-1.1999,-1.2002,-1.2004,0,0,0,0,0,0,0,-1.1348,-1.1368,-1.1554,-1.1549,-1.156,-1.1587,-1.1607,-1.1671,-1.1779,-1.1703,-1.1711,-1.1731,-1.1879,-1.1914,-1.1926,-1.2023,-1.1994,-1.2001,-1.2005,-1.2007,-1.2146,-1.2146,0,0,0,0,0,0,-1.1326,-1.1359,-1.1549,-1.156,-1.1461,-1.1591,-1.1614,-1.1654,-1.1779,-1.1798,-1.173,-1.1735,-1.1902,-1.1918,-1.1933,-1.1975,-1.2002,-1.2008,-1.2012,-1.2147,-1.2146,-1.2146,0,0,0,0,0,0,-1.132,-1.1342,-1.1541,-1.1462,-1.1489,-1.1595,-1.1639,-1.1657,-1.1692,-1.18,-1.1819,-1.1746,-1.1903,-1.1923,-1.1984,-1.1983,-1.2011,-1.2018,-1.2147,-1.2146,-1.2146,-1.206,0,0,0,0,0,0,-1.1312,-1.1339,-1.1351,-1.1461,-1.1493,-1.1589,-1.1639,-1.166,-1.1703,-1.1712,-1.1819,-1.1838,-1.1905,-1.1973,-1.1991,-1.1993,-1.2023,-1.2148,-1.2147,-1.2146,-1.2063,-1.2056,-1.205,0,0,0,0,0,-1.1303,-1.1321,-1.1351,-1.1374,-1.1511,-1.1589,-1.1607,-1.1683,-1.1703,-1.1716,-1.1785,-1.1834,-1.198,-1.1979,-1.2,-1.2003,-1.2148,-1.2147,-1.2146,-1.2066,-1.2057,-1.205,0,0,0,0,0,0,-1.1209,-1.1337,-1.1372,-1.1426,-1.1496,-1.1607,-1.1626,-1.1672,-1.1738,-1.1743,-1.1835,-1.1859,-1.1911,-1.1964,-1.196,-1.2038,-1.207,-1.2073,-1.2001,-1.1994,-1.1988,-1.1973,-1.2029,0,0,0,0,0,-1.1194,-1.1247,-1.1356,-1.1393,-1.1426,-1.1519,-1.1557,-1.1609,-1.1685,-1.1715,-1.1789,-1.1861,-1.1923,-1.1962,-1.2025,-1.2072,-1.2096,-1.2085,-1.2078,-1.2072,-1.2073,-1.21,-1.2096,-1.2142,-1.2142,-1.2142,0,0,-1.1165,-1.1241,-1.1269,-1.1376,-1.1436,-1.1488,-1.1544,-1.1597,-1.1636,-1.1724,-1.1785,-1.1841,-1.1928,-1.1981,-1.2009,-1.2027,-1.2066,-1.2071,-1.2065,-1.207,-1.2098,-1.2094,-1.209,-1.2141,-1.2142,-1.2142,0,0,-1.1138,-1.1202,-1.1239,-1.1297,-1.1387,-1.1449,-1.1457,-1.1561,-1.1602,-1.1665,-1.1731,-1.1779,-1.1885,-1.1943,-1.1987,-1.198,-1.2027,-1.1998,-1.1964,-1.1989,-1.1985,-1.1982,-1.1978,-1.1976,-1.1999,-1.1999,-1.1999,0,-1.109,-1.1171,-1.1252,-1.1301,-1.1345,-1.1426,-1.1463,-1.1517,-1.1623,-1.1651,-1.1671,-1.1803,-1.1868,-1.1935,-1.1933,-1.1966,-1.1978,-1.1986,-1.1979,-1.1977,-1.1975,-1.1972,-1.1971,-1.1995,-1.1995,-1.1996,-1.1996,0,-1.1107,-1.1162,-1.1181,-1.128,-1.1327,-1.137,-1.1457,-1.1495,-1.1543,-1.1603,-1.1665,-1.1745,-1.1825,-1.1845,-1.1893,-1.1919,-1.1927,-1.1961,-1.1994,-1.1965,-1.1964,-1.1964,-1.1989,-1.199,-1.1991,-1.1992,0,0,-1.1026,-1.1168,-1.1174,-1.1218,-1.1323,-1.1367,-1.1413,-1.1491,-1.152,-1.1591,-1.1631,-1.1718,-1.175,-1.1799,-1.1854,-1.1876,-1.1863,-1.1908,-1.1912,-1.1895,-1.1894,-1.1866,-1.1863,-1.1896,-1.1896,-1.1896,-1.1886,0,-1.1013,-1.1099,-1.1172,-1.1231,-1.1282,-1.1359,-1.1399,-1.1467,-1.1524,-1.1576,-1.1639,-1.1698,-1.1737,-1.1766,-1.1792,-1.1859,-1.1864,-1.1862,-1.1934,-1.1935,-1.1907,-1.1863,-1.1834,-1.1821,-1.1886,-1.1886,-1.1887,0,-1.1009,-1.1074,-1.1138,-1.1235,-1.126,-1.1294,-1.137,-1.1418,-1.1497,-1.1537,-1.159,-1.1648,-1.17,-1.1728,-1.1801,-1.1797,-1.1831,-1.1869,-1.187,-1.1879,-1.1907,-1.1868,-1.1819,-1.1815,-1.1887,-1.1887,-1.1887,0,-1.0941,-1.1045,-1.1096,-1.1133,-1.1248,-1.127,-1.132,-1.1399,-1.144,-1.1507,-1.1534,-1.1606,-1.1645,-1.1699,-1.1775,-1.1789,-1.1838,-1.1874,-1.1872,-1.187,-1.1878,-1.1876,-1.183,-1.1902,-1.1902,-1.1902,-1.1902,0,-1.0917,-1.0952,-1.1067,-1.1098,-1.1139,-1.1223,-1.1262,-1.1318,-1.1388,-1.1431,-1.1503,-1.1542,-1.164,-1.1691,-1.175,-1.18,-1.1818,-1.1851,-1.1866,-1.1843,-1.1838,-1.1865,-1.1867,-1.1902,-1.1902,-1.1902,-1.1902,0,-1.0847,-1.0925,-1.0986,-1.109,-1.1117,-1.1142,-1.1232,-1.1264,-1.1325,-1.1378,-1.1396,-1.1491,-1.1554,-1.1635,-1.1725,-1.1765,-1.1807,-1.1831,-1.1779,-1.1788,-1.1781,-1.1779,-1.175,-1.1749,-1.1822,-1.1821,-1.1821,0,-1.0826,-1.0855,-1.0961,-1.0995,-1.1041,-1.1095,-1.1137,-1.1221,-1.1261,-1.1352,-1.1373,-1.1442,-1.1501,-1.1599,-1.1676,-1.1744,-1.177,-1.1754,-1.178,-1.1756,-1.1767,-1.1763,-1.1765,-1.1747,-1.1746,-1.1745,-1.1744,0,-1.0779,-1.0816,-1.0873,-1.0943,-1.0991,-1.1051,-1.1113,-1.1137,-1.1234,-1.1276,-1.1341,-1.1386,-1.1476,-1.1543,-1.1621,-1.1673,-1.1724,-1.1736,-1.1738,-1.1714,-1.1682,-1.1697,-1.1759,-1.1735,-1.1736,-1.1737,-1.1737,-1.1738,-1.0732,-1.076,-1.0839,-1.09,-1.0956,-1.1012,-1.1047,-1.1112,-1.1167,-1.1246,-1.1293,-1.1355,-1.1432,-1.1542,-1.1591,-1.1641,-1.1661,-1.1666,-1.1667,-1.1666,-1.1657,-1.1675,-1.1656,-1.1657,-1.1657,-1.1657,-1.1658,0,-1.0687,-1.0741,-1.0796,-1.0881,-1.0928,-1.0973,-1.1044,-1.1081,-1.1134,-1.1202,-1.1258,-1.1331,-1.1396,-1.1478,-1.1548,-1.1572,-1.1597,-1.1588,-1.1586,-1.1596,-1.1637,-1.1626,-1.1566,-1.1566,-1.1566,-1.1566,-1.1566,-1.1566,-1.0669,-1.0718,-1.0764,-1.0841,-1.0896,-1.0957,-1.0993,-1.1046,-1.1099,-1.1178,-1.1231,-1.1284,-1.1357,-1.1433,-1.1494,-1.1516,-1.1538,-1.152,-1.1549,-1.1586,-1.1594,-1.1601,-1.1592,-1.1525,-1.1525,-1.1504,-1.1504,-1.1504]},{"header":{"parameterUnit":"m.s-1","parameterCategory":1,"la1":30.2991,"la2":30.254,"lo1":-89.0895,"lo2":-89.0444,"dy":0.0017,"dx":0.0017,"nx":28,"ny":28,"refTime":"2023-09-27T09:00:00:Z","depth":0,"parameterNumber":3,"parameterNumberName":"V-component_of_WINDS"},"data":[0,0,0,0,0,0,0,0,0,0,0,0,0,0,0,0,0,0,0,0,0,0,0,0,0,0,0,0,0,0,0,0,0,0,0,0,0,0,0,0,0,0,0,0,0,0,0,0,0,0,0,0,0,0,0,0,0,0,-2.1623,-2.162,0,-2.139,-2.1387,-2.1385,-2.1271,-2.1271,-2.1271,-2.1271,-2.1014,-2.1007,-2.1,0,0,0,0,0,0,0,0,0,0,0,0,0,-2.195,-2.1944,-2.1623,-2.162,-2.1617,-2.1391,-2.1387,-2.1384,-2.1271,-2.1271,-2.1271,-2.1271,-2.1016,-2.1008,-2.1,0,0,0,0,0,0,0,0,0,0,0,0,0,-2.1771,-2.1943,-2.1624,-2.1534,-2.1524,-2.1391,-2.1387,-2.1383,-2.1271,-2.1271,-2.1271,-2.1271,-2.1019,-2.1009,-2.0999,-2.0932,0,0,-2.0967,-2.0962,0,0,0,0,0,0,0,0,-2.1781,-2.1759,-2.155,-2.154,-2.1528,-2.136,-2.1408,-2.1231,-2.1271,-2.1366,-2.1271,-2.1272,-2.1128,-2.1109,-2.1064,-2.092,-2.0909,-2.0966,-2.096,-2.0955,-2.0952,0,0,0,0,0,0,0,-2.1794,-2.1768,-2.153,-2.1547,-2.1534,-2.1499,-2.1474,-2.1374,-2.1248,-2.1358,-2.1349,-2.1324,-2.1122,-2.1074,-2.1057,-2.0905,-2.0966,-2.0957,-2.0951,-2.0947,-2.0688,-2.0687,0,0,0,0,0,0,-2.1824,-2.178,-2.1538,-2.1523,-2.1658,-2.1493,-2.1465,-2.1414,-2.125,-2.1225,-2.1325,-2.132,-2.1092,-2.1069,-2.1048,-2.0955,-2.0955,-2.0946,-2.094,-2.0688,-2.0687,-2.0687,0,0,0,0,0,0,-2.1831,-2.1803,-2.1547,-2.1649,-2.1614,-2.1487,-2.1431,-2.1409,-2.1362,-2.1224,-2.1199,-2.1301,-2.1091,-2.1062,-2.0961,-2.0945,-2.0941,-2.0931,-2.0689,-2.0688,-2.0687,-2.0773,0,0,0,0,0,0,-2.1841,-2.1807,-2.1785,-2.165,-2.1609,-2.1472,-2.143,-2.1404,-2.1346,-2.1338,-2.1195,-2.1171,-2.1089,-2.0978,-2.0951,-2.093,-2.0923,-2.069,-2.0689,-2.0687,-2.0771,-2.0775,-2.0778,0,0,0,0,0,-2.1853,-2.1815,-2.1785,-2.1756,-2.1581,-2.1471,-2.1447,-2.1359,-2.1346,-2.1319,-2.123,-2.1176,-2.0952,-2.0968,-2.0938,-2.0913,-2.069,-2.0689,-2.0687,-2.0769,-2.0774,-2.0778,0,0,0,0,0,0,-2.1946,-2.1796,-2.176,-2.1679,-2.159,-2.1453,-2.1417,-2.1367,-2.1275,-2.127,-2.1158,-2.1126,-2.1035,-2.0963,-2.0985,-2.0837,-2.0815,-2.0807,-2.0888,-2.0891,-2.0895,-2.0913,-2.0915,0,0,0,0,0,-2.1958,-2.1889,-2.1758,-2.1699,-2.1656,-2.1545,-2.1494,-2.1434,-2.1333,-2.1293,-2.1197,-2.1096,-2.1002,-2.0943,-2.0849,-2.076,-2.0723,-2.0727,-2.0731,-2.0735,-2.0729,-2.0671,-2.067,-2.0682,-2.0682,-2.0682,0,0,-2.198,-2.189,-2.1851,-2.1715,-2.1639,-2.1562,-2.1513,-2.1435,-2.1375,-2.1279,-2.118,-2.1105,-2.0984,-2.0889,-2.0841,-2.0826,-2.0717,-2.0733,-2.0737,-2.0728,-2.0669,-2.0668,-2.0668,-2.0681,-2.0681,-2.0681,0,0,-2.1982,-2.1909,-2.185,-2.1775,-2.1662,-2.1587,-2.1573,-2.1443,-2.1392,-2.1291,-2.1216,-2.1139,-2.0982,-2.0898,-2.0835,-2.0802,-2.0746,-2.0774,-2.0793,-2.0738,-2.0737,-2.0735,-2.0719,-2.0716,-2.0768,-2.0769,-2.0769,0,-2.2022,-2.1911,-2.1824,-2.1751,-2.169,-2.1605,-2.154,-2.1469,-2.1328,-2.1285,-2.1272,-2.1071,-2.0983,-2.0865,-2.0857,-2.081,-2.0784,-2.0789,-2.0745,-2.0743,-2.074,-2.0723,-2.0718,-2.0773,-2.0772,-2.0772,-2.0771,0,-2.1964,-2.1888,-2.1852,-2.1725,-2.166,-2.1591,-2.1487,-2.143,-2.1375,-2.13,-2.1194,-2.1087,-2.0969,-2.0936,-2.0879,-2.0807,-2.0801,-2.0768,-2.0743,-2.0744,-2.0727,-2.072,-2.0778,-2.0777,-2.0776,-2.0775,0,0,-2.2018,-2.1844,-2.1832,-2.1772,-2.1639,-2.1575,-2.1498,-2.1389,-2.134,-2.1244,-2.1174,-2.1041,-2.1009,-2.0937,-2.0869,-2.0822,-2.0797,-2.0793,-2.0788,-2.0795,-2.0706,-2.0731,-2.0725,-2.076,-2.0759,-2.0758,-2.0715,0,-2.1999,-2.1868,-2.1786,-2.1683,-2.1608,-2.1524,-2.1457,-2.1364,-2.1291,-2.121,-2.1126,-2.1033,-2.1,-2.0956,-2.0905,-2.0812,-2.0777,-2.0814,-2.0686,-2.0683,-2.0719,-2.0717,-2.0743,-2.0708,-2.0708,-2.0706,-2.0706,0,-2.1961,-2.1873,-2.1766,-2.1639,-2.1604,-2.1546,-2.1436,-2.1363,-2.1253,-2.1202,-2.1123,-2.1054,-2.0962,-2.0947,-2.0815,-2.0842,-2.0784,-2.0729,-2.0725,-2.0708,-2.0694,-2.0696,-2.0695,-2.0689,-2.0695,-2.0695,-2.0696,0,-2.2008,-2.1862,-2.1778,-2.1729,-2.158,-2.154,-2.1475,-2.1366,-2.1304,-2.1205,-2.1162,-2.1053,-2.0992,-2.0904,-2.0805,-2.0804,-2.0681,-2.0658,-2.0631,-2.0633,-2.0608,-2.0611,-2.0595,-2.0575,-2.0575,-2.0575,-2.0576,0,-2.1994,-2.1931,-2.1797,-2.1745,-2.1669,-2.1572,-2.1496,-2.1423,-2.1326,-2.1253,-2.1171,-2.1102,-2.0977,-2.089,-2.0811,-2.0711,-2.0684,-2.0636,-2.0615,-2.0642,-2.0648,-2.0602,-2.06,-2.0574,-2.0574,-2.0575,-2.0575,0,-2.2034,-2.1943,-2.1845,-2.1713,-2.1678,-2.1627,-2.151,-2.1452,-2.1374,-2.1282,-2.1254,-2.113,-2.1023,-2.0917,-2.0771,-2.0718,-2.0618,-2.0592,-2.0658,-2.0646,-2.0624,-2.0626,-2.0576,-2.0562,-2.0555,-2.0555,-2.0556,0,-2.2031,-2.1981,-2.1844,-2.1793,-2.1731,-2.1648,-2.1585,-2.1485,-2.1421,-2.1291,-2.1247,-2.1137,-2.1043,-2.0875,-2.0766,-2.0653,-2.0621,-2.0611,-2.0603,-2.0631,-2.0617,-2.0621,-2.0612,-2.0614,-2.0615,-2.0615,-2.0616,0,-2.2034,-2.1991,-2.1908,-2.1807,-2.1736,-2.1651,-2.1561,-2.1521,-2.1402,-2.1333,-2.1228,-2.1155,-2.1008,-2.0896,-2.0771,-2.0694,-2.0632,-2.0619,-2.0606,-2.0633,-2.0672,-2.0647,-2.0665,-2.062,-2.062,-2.062,-2.0619,-2.0619,-2.2049,-2.2,-2.1896,-2.1804,-2.1728,-2.1646,-2.1585,-2.1501,-2.1413,-2.1291,-2.1234,-2.1126,-2.101,-2.0836,-2.0761,-2.0669,-2.0653,-2.0635,-2.063,-2.0626,-2.0631,-2.0689,-2.0646,-2.0645,-2.0645,-2.0645,-2.0645,0,-2.2045,-2.1975,-2.1892,-2.1772,-2.1698,-2.1654,-2.1551,-2.149,-2.1399,-2.13,-2.121,-2.1085,-2.0975,-2.0858,-2.074,-2.0689,-2.0657,-2.066,-2.0662,-2.0644,-2.0654,-2.0676,-2.0688,-2.0688,-2.0688,-2.0688,-2.0688,-2.0688,-2.2035,-2.1948,-2.1892,-2.1763,-2.169,-2.159,-2.1534,-2.1455,-2.1376,-2.1242,-2.1154,-2.1081,-2.0971,-2.0844,-2.0739,-2.0707,-2.0665,-2.0676,-2.0635,-2.0647,-2.0644,-2.0641,-2.0661,-2.0669,-2.0669,-2.0632,-2.0632,-2.0631]}]]